#timestamp,LO_Frequency,Hit,StdDev 
1583543755.7,286047005.3,P
1583543775.5,286047007.6,P
1583543795.4,286047006.4,P
1583543815.2,286047008.6,Y
1583543835.1,286047002.2,P
1583543836.0,286047002.2,N
1583543855.8,286047002.6,N
1583543875.6,286047000.4,N
1583543895.5,286046998.2,N
1583543915.3,286047001.0,N
1583543935.1,286047000.6,N
1583543955.9,286047001.7,N
1583543975.7,286047002.1,N
1583543995.6,286047000.1,N
1583544015.4,286047001.8,N
1583544035.2,286047003.9,N
1583544055.1,286047005.9,Y
1583544056.0,286047005.9,P
1583544075.8,286047004.5,N
1583544095.7,286047006.7,P
1583544115.5,286047007.0,Y
1583544135.3,286047002.7,P
1583544155.2,286047001.2,N
1583544175.0,286046997.7,N
1583544175.9,286046997.7,N
1583544195.8,286046996.7,N
1583544215.6,286046996.6,N
1583544235.4,286046996.8,N
1583544255.3,286046996.5,N
1583544275.1,286046999.0,N
1583544295.8,286046999.3,N
1583544315.7,286046999.1,N
1583544335.5,286046998.8,N
1583544355.4,286046998.8,N
1583544375.2,286046998.2,N
1583544395.0,286047002.8,N
1583544395.9,286047002.8,N
1583544415.8,286046999.9,N
1583544435.6,286047000.0,N
1583544455.5,286047000.7,N
1583544475.3,286047001.0,N
1583544495.1,286047000.5,N
1583544515.9,286046999.7,N
1583544535.7,286047002.6,N
1583544555.5,286047002.8,N
1583544575.4,286047000.1,N
1583544595.2,286047002.2,N
1583544615.0,286047004.3,N
1583544616.0,286047004.3,N
1583544635.8,286047003.2,N
1583544655.6,286047003.7,N
1583544675.5,286047004.1,N
1583544695.3,286047004.2,N
1583544715.1,286047001.5,N
1583544735.9,286047002.7,N
1583544755.7,286047002.7,N
1583544775.6,286047002.3,N
1583544795.4,286047002.0,N
1583544815.2,286047002.1,N
1583544835.1,286047001.3,N
1583544836.0,286047001.3,N
1583544855.8,286047002.5,N
1583544875.6,286046999.9,N
1583544895.5,286047000.7,N
1583544915.3,286047000.7,N
1583544935.2,286046997.0,N
1583544955.9,286046998.8,N
1583544975.7,286046998.3,N
1583544995.6,286047001.2,N
1583545015.4,286046998.4,N
1583545035.2,286047000.7,N
1583545055.1,286047002.2,N
1583545056.0,286047002.2,N
1583545075.8,286046999.7,N
1583545095.7,286047000.8,N
1583545115.5,286046998.2,N
1583545135.3,286047000.0,N
1583545155.2,286047002.0,N
1583545175.0,286047003.0,N
1583545175.9,286047003.0,N
1583545195.7,286047005.0,N
1583545215.6,286047005.9,Y
1583545235.4,286047006.0,P
1583545255.3,286047001.5,N
1583545275.1,286047001.2,N
1583545295.8,286046997.6,N
1583545315.7,286046995.3,N
1583545335.5,286046995.6,N
1583545355.4,286046996.2,N
1583545375.2,286046995.7,N
1583545395.0,286046998.0,N
1583545395.9,286046998.0,N
1583545415.8,286046998.9,N
1583545435.6,286047001.1,N
1583545455.4,286047000.3,N
1583545475.3,286046999.0,N
1583545495.1,286047000.5,N
1583545515.9,286046999.9,N
1583545535.7,286047000.2,N
1583545555.5,286046998.9,N
1583545575.4,286046996.5,N
1583545595.2,286046997.3,N
1583545615.0,286046997.6,N
1583545615.9,286046997.6,N
1583545635.8,286046997.7,N
1583545655.6,286046994.9,N
1583545675.5,286046995.0,N
1583545695.3,286046995.1,N
1583545715.1,286046997.6,N
1583545735.9,286046997.4,N
1583545755.7,286046997.2,N
1583545775.5,286046996.7,N
1583545795.4,286046997.7,N
1583545815.2,286046999.6,N
1583545835.1,286046999.5,N
1583545836.0,286046999.5,N
1583545855.8,286046998.8,N
1583545875.6,286046998.7,N
1583545895.5,286046999.0,N
1583545915.3,286047000.1,N
1583545935.1,286047002.3,N
1583545955.9,286046999.8,N
1583545975.7,286047000.2,N
1583545995.6,286047000.2,N
1583546015.4,286047000.0,N
1583546035.2,286046998.1,N
1583546055.1,286047001.1,N
1583546056.0,286047001.1,N
1583546075.8,286047000.7,N
1583546095.6,286047000.7,N
1583546115.5,286047000.5,N
1583546135.3,286047000.8,N
1583546155.2,286047001.2,N
1583546175.9,286046998.5,N
1583546195.7,286047000.2,N
1583546215.6,286046999.9,N
1583546235.4,286047000.4,N
1583546255.2,286047000.0,N
1583546275.1,286046999.9,N
1583546276.0,286046999.9,N
1583546295.8,286047000.5,N
1583546315.7,286047000.1,N
1583546335.5,286047000.0,N
1583546355.3,286047000.3,N
1583546375.2,286047000.3,N
1583546395.0,286047000.1,N
1583546395.9,286047000.1,N
